Burbank, CA

9:42 PM PST on November 17, 2017 (GMT -0800)
Burbank-Glendale-Pasadena

Weather History for KBUR - May, 2014

Change the Weather History Date:

Friday, May 9, 2014

  Actual Average Record
Temperature  
Mean Temperature 64 °F 65 °F  
Max Temperature 73 °F 76 °F 97 °F (1940)
Min Temperature 54 °F 54 °F 43 °F (1972)
Degree Days  
Heating Degree Days 1 2  
Month to date heating degree days 14 23  
Since 1 July heating degree days 651 1520  
Cooling Degree Days 0 2  
Month to date cooling degree days 46 18  
Year to date cooling degree days 207 69  
Growing Degree Days 14 (Base 50)    
Moisture  
Dew Point 48 °F    
Average Humidity 58    
Maximum Humidity 75    
Minimum Humidity 41    
Precipitation  
Precipitation 0.00 in 0.01 in 1.15 in (1977)
Month to date precipitation T 0.15  
Year to date precipitation 4.91 12.24  
Since 1 July precipitation 5.34  
Sea Level Pressure  
Sea Level Pressure 29.99 in    
Wind  
Wind Speed 6 mph (SE)    
Max Wind Speed 14 mph    
Max Gust Speed 23 mph    
Visibility 10 miles    
Events      
T = Trace of Precipitation, MM = Missing Value Source: NWS Daily Summary

Daily Weather History Graph

Daily Weather History Graph

Search for Another Location

Airport or City:

Trip Planner

Search our weather history database for the weather conditions in past years. The results will help you decide how hot, cold, wet, or windy it might be!

Date:

Astronomy

May. 09, 2014 Rise Set
Actual Time 5:56 AM PDT 7:43 PM PDT
Civil Twilight 5:29 AM PDT 8:11 PM PDT
Nautical Twilight 4:56 AM PDT 8:44 PM PDT
Astronomical Twilight 4:21 AM PDT 9:19 PM PDT
Moon 2:58 PM PDT (5/9) 2:46 AM PDT (5/9)
Length of Visible Light 14h 42m
Length of Day
13h 47m
Waxing Gibbous, 74% of the Moon is Illuminated
May 9
Waxing Gibbous
May 14
Full
May 21
Last Quarter
May 28
New
Jun 5
First Quarter

Hourly Weather History & Observations

Time (PDT) Temp. Dew Point Humidity Pressure Visibility Wind Dir Wind Speed Gust Speed Precip Events Conditions
12:53 AM 57.9 °F 44.1 °F 60% 30.04 in 10.0 mi Calm Calm - N/A   Clear
1:53 AM 57.9 °F 45.0 °F 62% 30.02 in 10.0 mi East 3.5 mph - N/A   Clear
2:53 AM 57.9 °F 46.0 °F 65% 30.01 in 10.0 mi East 3.5 mph - N/A   Clear
3:53 AM 57.0 °F 45.0 °F 64% 30.02 in 10.0 mi Calm Calm - N/A   Clear
4:53 AM 55.0 °F 44.1 °F 67% 30.02 in 10.0 mi Calm Calm - N/A   Clear
5:53 AM 54.0 °F 44.1 °F 69% 30.03 in 10.0 mi NNW 3.5 mph - N/A   Clear
6:53 AM 55.0 °F 45.0 °F 69% 30.04 in 10.0 mi Calm Calm - N/A   Clear
7:53 AM 57.9 °F 45.0 °F 62% 30.04 in 10.0 mi Calm Calm - N/A   Clear
8:53 AM 61.0 °F 46.9 °F 60% 30.04 in 10.0 mi Variable 4.6 mph - N/A   Clear
9:53 AM 64.0 °F 46.0 °F 52% 30.03 in 10.0 mi SE 4.6 mph - N/A   Clear
10:53 AM 66.9 °F 46.0 °F 47% 30.02 in 10.0 mi Variable 3.5 mph - N/A   Clear
11:53 AM 71.1 °F 46.0 °F 41% 30.01 in 10.0 mi NE 3.5 mph - N/A   Clear
12:53 PM 72.0 °F 51.1 °F 48% 29.99 in 10.0 mi South 10.4 mph 23.0 mph N/A   Clear
1:53 PM 71.1 °F 50.0 °F 47% 29.98 in 10.0 mi South 9.2 mph - N/A   Clear
2:53 PM 73.0 °F 48.9 °F 42% 29.96 in 10.0 mi South 12.7 mph - N/A   Clear
3:53 PM 72.0 °F 48.9 °F 44% 29.94 in 10.0 mi South 6.9 mph - N/A   Clear
4:53 PM 71.1 °F 50.0 °F 47% 29.93 in 10.0 mi South 9.2 mph - N/A   Clear
5:53 PM 68.0 °F 53.1 °F 59% 29.93 in 10.0 mi South 12.7 mph - N/A   Clear
6:53 PM 66.0 °F 53.1 °F 63% 29.92 in 10.0 mi SE 10.4 mph - N/A   Clear
7:53 PM 64.9 °F 53.1 °F 65% 29.94 in 10.0 mi SE 8.1 mph - N/A   Clear
8:53 PM 63.0 °F 52.0 °F 67% 29.95 in 10.0 mi ESE 8.1 mph - N/A   Clear
9:53 PM 61.0 °F 51.1 °F 70% 29.96 in 10.0 mi SE 6.9 mph - N/A   Clear
10:53 PM 59.0 °F 51.1 °F 75% 29.96 in 10.0 mi SE 4.6 mph - N/A   Clear
11:53 PM 59.0 °F 50.0 °F 72% 29.95 in 10.0 mi SE 3.5 mph - N/A   Clear